Time,TemperatureF,DewpointF,PressureIn,WindDirection,WindDirectionDegrees,WindSpeedMPH,WindSpeedGustMPH,Humidity,HourlyPrecipIn,Conditions,Clouds,dailyrainin,SoftwareType,DateUTC
2013-01-18 00:02:00,21.0,17.0,30.00,SW,230,0.0,32.0,86,0.00,,,0.00,,2013-01-18 06:02:00,
2013-01-18 00:12:00,21.0,17.0,30.00,SW,230,0.0,32.0,86,0.00,,,0.00,,2013-01-18 06:12:00,
2013-01-18 00:22:00,21.0,17.0,30.00,SW,230,0.0,32.0,86,0.00,,,0.00,,2013-01-18 06:22:00,
2013-01-18 02:42:00,25.0,21.0,30.00,South,184,0.0,32.0,86,0.00,,,0.00,,2013-01-18 08:42:00,
2013-01-18 03:02:00,25.0,21.0,30.00,South,184,0.0,32.0,86,0.00,,,0.00,,2013-01-18 09:02:00,
2013-01-18 03:12:00,25.0,21.0,30.00,South,184,0.0,32.0,86,0.00,,,0.00,,2013-01-18 09:12:00,
2013-01-18 03:22:00,25.0,21.0,30.00,South,184,0.0,32.0,86,0.00,,,0.00,,2013-01-18 09:22:00,
2013-01-18 03:33:00,25.0,21.0,30.00,South,184,0.0,32.0,86,0.00,,,0.00,,2013-01-18 09:33:00,
2013-01-18 04:22:00,25.0,21.0,30.00,SSE,163,3.0,32.0,86,0.00,,,0.00,,2013-01-18 10:22:00,
2013-01-18 04:32:00,25.0,21.0,30.00,South,180,3.0,32.0,86,0.00,,,0.00,,2013-01-18 10:32:00,
2013-01-18 04:42:00,25.0,21.0,30.00,South,180,3.0,32.0,86,0.00,,,0.00,,2013-01-18 10:42:00,
2013-01-18 04:52:00,25.0,21.0,30.00,South,174,3.0,32.0,86,0.00,,,0.00,,2013-01-18 10:52:00,
2013-01-18 05:02:00,25.0,21.0,30.00,South,174,3.0,32.0,86,0.00,,,0.00,,2013-01-18 11:02:00,
2013-01-18 05:12:00,25.0,21.0,30.00,South,174,3.0,32.0,86,0.00,,,0.00,,2013-01-18 11:12:00,
2013-01-18 05:22:00,26.0,22.0,30.00,SSW,194,3.0,32.0,86,0.00,,,0.00,,2013-01-18 11:22:00,
2013-01-18 05:33:00,25.0,21.0,30.00,South,175,5.0,32.0,86,0.00,,,0.00,,2013-01-18 11:33:00,
2013-01-18 05:42:00,25.0,21.0,30.00,South,175,5.0,32.0,86,0.00,,,0.00,,2013-01-18 11:42:00,
2013-01-18 05:53:00,25.0,21.0,30.00,South,175,5.0,32.0,86,0.00,,,0.00,,2013-01-18 11:53:00,
2013-01-18 06:02:00,26.0,22.0,30.00,SE,128,2.0,32.0,86,0.00,,,0.00,,2013-01-18 12:02:00,
2013-01-18 06:12:00,26.0,22.0,30.00,SE,128,2.0,32.0,86,0.00,,,0.00,,2013-01-18 12:12:00,
2013-01-18 06:22:00,26.0,22.0,30.00,SE,128,2.0,32.0,86,0.00,,,0.00,,2013-01-18 12:22:00,
2013-01-18 06:33:00,26.0,22.0,30.00,SE,128,2.0,32.0,86,0.00,,,0.00,,2013-01-18 12:33:00,
2013-01-18 06:42:00,26.0,22.0,30.00,SE,128,2.0,32.0,86,0.00,,,0.00,,2013-01-18 12:42:00,
2013-01-18 06:53:00,27.0,23.0,30.00,South,178,6.0,32.0,86,0.00,,,0.00,,2013-01-18 12:53:00,
2013-01-18 07:03:00,27.0,23.0,30.00,South,178,6.0,32.0,86,0.00,,,0.00,,2013-01-18 13:03:00,
2013-01-18 07:12:00,27.0,23.0,30.00,South,178,6.0,32.0,86,0.00,,,0.00,,2013-01-18 13:12:00,
2013-01-18 07:23:00,27.0,23.0,30.00,South,178,6.0,32.0,86,0.00,,,0.00,,2013-01-18 13:23:00,
2013-01-18 08:03:00,27.0,23.0,30.00,South,177,8.0,32.0,86,0.00,,,0.00,,2013-01-18 14:03:00,
2013-01-18 08:12:00,27.0,23.0,30.00,South,177,8.0,32.0,86,0.00,,,0.00,,2013-01-18 14:12:00,
2013-01-18 08:23:00,27.0,23.0,30.00,South,189,7.0,32.0,86,0.00,,,0.00,,2013-01-18 14:23:00,
2013-01-18 08:33:00,28.0,24.0,30.00,South,185,7.0,32.0,86,0.00,,,0.00,,2013-01-18 14:33:00,
2013-01-18 08:42:00,28.0,24.0,30.00,South,185,7.0,32.0,86,0.00,,,0.00,,2013-01-18 14:42:00,
2013-01-18 08:53:00,29.0,25.0,30.00,South,178,8.0,32.0,86,0.00,,,0.00,,2013-01-18 14:53:00,
2013-01-18 09:03:00,29.0,25.0,30.00,South,178,8.0,32.0,86,0.00,,,0.00,,2013-01-18 15:03:00,
2013-01-18 09:12:00,29.0,25.0,30.00,South,178,8.0,32.0,86,0.00,,,0.00,,2013-01-18 15:12:00,
2013-01-18 09:23:00,29.0,25.0,30.00,South,178,8.0,32.0,86,0.00,,,0.00,,2013-01-18 15:23:00,
2013-01-18 10:03:00,36.0,32.0,30.00,South,189,14.0,32.0,86,0.00,,,0.00,,2013-01-18 16:03:00,
2013-01-18 10:12:00,36.0,32.0,30.00,South,189,14.0,32.0,86,0.00,,,0.00,,2013-01-18 16:12:00,
2013-01-18 10:23:00,36.0,32.0,30.00,SSW,208,15.0,32.0,86,0.00,,,0.00,,2013-01-18 16:23:00,
2013-01-18 10:33:00,37.0,33.0,30.00,SSW,203,10.0,32.0,86,0.00,,,0.00,,2013-01-18 16:33:00,
2013-01-18 10:42:00,37.0,33.0,30.00,SSW,203,10.0,32.0,86,0.00,,,0.00,,2013-01-18 16:42:00,
2013-01-18 10:52:00,37.0,33.0,30.00,SSW,203,10.0,32.0,86,0.00,,,0.00,,2013-01-18 16:52:00,
2013-01-18 11:03:00,37.0,33.0,30.00,SSW,203,10.0,32.0,86,0.00,,,0.00,,2013-01-18 17:03:00,
2013-01-18 11:13:00,37.0,33.0,30.00,SSW,203,10.0,32.0,86,0.00,,,0.00,,2013-01-18 17:13:00,
2013-01-18 12:03:00,40.0,36.0,30.00,SSW,201,13.0,36.0,86,0.00,,,0.00,,2013-01-18 18:03:00,
2013-01-18 12:13:00,40.0,36.0,30.00,SSW,201,13.0,36.0,86,0.00,,,0.00,,2013-01-18 18:13:00,
2013-01-18 12:23:00,40.0,36.0,30.00,SSW,201,13.0,36.0,86,0.00,,,0.00,,2013-01-18 18:23:00,
2013-01-18 12:33:00,41.0,37.0,30.00,SSW,213,10.0,39.0,86,0.00,,,0.00,,2013-01-18 18:33:00,
2013-01-18 12:43:00,41.0,37.0,30.00,SSW,213,10.0,39.0,86,0.00,,,0.00,,2013-01-18 18:43:00,
2013-01-18 12:53:00,42.0,38.0,30.00,SSW,204,12.0,39.0,86,0.00,,,0.00,,2013-01-18 18:53:00,
2013-01-18 13:03:00,43.0,39.0,30.00,South,189,13.0,39.0,86,0.00,,,0.00,,2013-01-18 19:03:00,
2013-01-18 13:12:00,43.0,39.0,30.00,South,189,13.0,39.0,86,0.00,,,0.00,,2013-01-18 19:12:00,
2013-01-18 13:22:00,43.0,39.0,30.00,South,189,13.0,39.0,86,0.00,,,0.00,,2013-01-18 19:22:00,
2013-01-18 13:33:00,44.0,40.0,30.00,South,186,9.0,39.0,86,0.00,,,0.00,,2013-01-18 19:33:00,
2013-01-18 13:42:00,44.0,40.0,30.00,South,186,9.0,39.0,86,0.00,,,0.00,,2013-01-18 19:42:00,
2013-01-18 13:53:00,44.0,40.0,30.00,South,186,9.0,39.0,86,0.00,,,0.00,,2013-01-18 19:53:00,
2013-01-18 14:03:00,44.0,40.0,30.00,South,186,9.0,39.0,86,0.00,,,0.00,,2013-01-18 20:03:00,
2013-01-18 14:12:00,44.0,40.0,30.00,South,186,9.0,39.0,86,0.00,,,0.00,,2013-01-18 20:12:00,
2013-01-18 15:53:00,47.0,43.0,30.00,SSW,205,17.0,39.0,86,0.00,,,0.00,,2013-01-18 21:53:00,
2013-01-18 16:03:00,46.0,42.0,30.00,SSW,192,12.0,39.0,86,0.00,,,0.00,,2013-01-18 22:03:00,
2013-01-18 16:12:00,46.0,42.0,30.00,SSW,192,12.0,39.0,86,0.00,,,0.00,,2013-01-18 22:12:00,
2013-01-18 16:22:00,46.0,42.0,30.00,SSW,205,13.0,39.0,86,0.00,,,0.00,,2013-01-18 22:22:00,
2013-01-18 16:32:00,46.0,42.0,30.00,SSW,205,13.0,39.0,86,0.00,,,0.00,,2013-01-18 22:32:00,
2013-01-18 16:43:00,46.0,42.0,30.00,SSW,205,13.0,39.0,86,0.00,,,0.00,,2013-01-18 22:43:00,
2013-01-18 16:52:00,44.0,40.0,30.00,SW,217,9.0,39.0,86,0.00,,,0.00,,2013-01-18 22:52:00,
2013-01-18 17:03:00,44.0,40.0,30.00,SW,217,9.0,39.0,86,0.00,,,0.00,,2013-01-18 23:03:00,
2013-01-18 17:12:00,44.0,40.0,30.00,SW,217,9.0,39.0,86,0.00,,,0.00,,2013-01-18 23:12:00,
2013-01-18 17:22:00,43.0,39.0,30.00,SSW,205,6.0,39.0,86,0.00,,,0.00,,2013-01-18 23:22:00,
2013-01-18 17:32:00,42.0,38.0,30.00,SW,218,7.0,39.0,86,0.00,,,0.00,,2013-01-18 23:32:00,
2013-01-18 17:43:00,42.0,38.0,30.00,SW,218,7.0,39.0,86,0.00,,,0.00,,2013-01-18 23:43:00,
2013-01-18 17:53:00,42.0,38.0,30.00,SW,218,7.0,39.0,86,0.00,,,0.00,,2013-01-18 23:53:00,
2013-01-18 18:02:00,42.0,38.0,30.00,SW,226,9.0,39.0,86,0.00,,,0.00,,2013-01-19 00:02:00,
2013-01-18 18:12:00,42.0,38.0,30.00,SW,226,9.0,39.0,86,0.00,,,0.00,,2013-01-19 00:12:00,
2013-01-18 18:23:00,42.0,38.0,30.00,SW,223,12.0,39.0,86,0.00,,,0.00,,2013-01-19 00:23:00,
2013-01-18 18:33:00,42.0,38.0,30.00,SSW,210,9.0,39.0,86,0.00,,,0.00,,2013-01-19 00:33:00,
2013-01-18 18:42:00,42.0,38.0,30.00,SSW,210,9.0,39.0,86,0.00,,,0.00,,2013-01-19 00:42:00,
2013-01-18 18:53:00,42.0,38.0,30.00,SSW,201,9.0,39.0,86,0.00,,,0.00,,2013-01-19 00:53:00,
2013-01-18 19:02:00,42.0,38.0,30.00,SW,222,10.0,39.0,86,0.00,,,0.00,,2013-01-19 01:02:00,
2013-01-18 19:12:00,42.0,38.0,30.00,SW,222,10.0,39.0,86,0.00,,,0.00,,2013-01-19 01:12:00,
2013-01-18 19:22:00,42.0,38.0,30.00,SW,222,10.0,39.0,86,0.00,,,0.00,,2013-01-19 01:22:00,
2013-01-18 19:32:00,42.0,38.0,30.00,SW,217,8.0,39.0,86,0.00,,,0.00,,2013-01-19 01:32:00,
2013-01-18 19:42:00,42.0,38.0,30.00,SW,217,8.0,39.0,86,0.00,,,0.00,,2013-01-19 01:42:00,
2013-01-18 19:53:00,42.0,38.0,30.00,South,187,8.0,39.0,86,0.00,,,0.00,,2013-01-19 01:53:00,
2013-01-18 20:02:00,42.0,38.0,30.00,SSW,211,10.0,39.0,86,0.00,,,0.00,,2013-01-19 02:02:00,
2013-01-18 20:12:00,42.0,38.0,30.00,SSW,211,10.0,39.0,86,0.00,,,0.00,,2013-01-19 02:12:00,
2013-01-18 20:22:00,41.0,37.0,30.00,SW,214,10.0,39.0,86,0.00,,,0.00,,2013-01-19 02:22:00,
2013-01-18 20:33:00,41.0,37.0,30.00,SSW,208,9.0,39.0,86,0.00,,,0.00,,2013-01-19 02:33:00,
2013-01-18 20:42:00,41.0,37.0,30.00,SSW,208,9.0,39.0,86,0.00,,,0.00,,2013-01-19 02:42:00,
2013-01-18 20:53:00,41.0,37.0,30.00,SSW,208,9.0,39.0,86,0.00,,,0.00,,2013-01-19 02:53:00,
2013-01-18 21:02:00,41.0,37.0,30.00,SSW,208,9.0,39.0,86,0.00,,,0.00,,2013-01-19 03:02:00,